Home   Weather   Ripon   Past weeks
Flag for United Kingdom

Past Weather in Ripon, England, United Kingdom — Yesterday and Last 2 Weeks

Now
52 °F

Low clouds.


Feels Like: 48 °F
Forecast: 70 / 43 °F
Wind: 12 mph from North

Location: Topcliffe Royal Air Force Base

Current Time: Jun 26, 2019 at 9:14:07 am

Latest Report: Jun 26, 2019 at 7:50 am


Visibility: N/A

Pressure: 30.42 "Hg

Humidity: 100%

Dew Point: 52 °F

Location of RiponLocation

Past Weather in Ripon — Graph

°F

Ripon Temperature Yesterday

Maximum temperature yesterday: 57 °F (at 12:50 am)
Minimum temperature yesterday: 54 °F (at 9:50 pm)
Average temperature yesterday: 56 °F

High & Low Weather Summary for the Past Weeks

 TemperatureHumidityPressure
High70 °F (Jun 18, 3:50 pm)100% (Jun 12, 2:50 am)30.42 "Hg (Jun 12, 2:50 am)
Low39 °F (Jun 22, 3:50 am)43% (Jun 21, 2:50 pm)29.56 "Hg (Jun 13, 9:21 am)
Average56 °F83%29.93 "Hg
* Reported Jun 11 7:50 am — Jun 26 7:50 am, Ripon. Weather by CustomWeather, © 2019

Note: Actual official high and low records may vary slightly from our data, if they occured in-between our weather recording intervals... More about our weather records

Advertising

Ripon Weather History for the Previous 24 Hours

Scroll right to see more
 ConditionsComfort  
Time TempWeatherWind HumidityBarometerVisibility
7:50 am
Wed, Jun 26
52 °FLow clouds.12 mph100%30.42 "HgN/A
6:50 am52 °FFog.10 mph100%30.39 "Hg4 mi
5:50 am52 °FFog.12 mph100%30.39 "Hg4 mi
4:50 am52 °FFog.10 mph100%30.36 "Hg5 mi
3:50 am52 °FFog.13 mph100%30.36 "Hg2 mi
2:50 am54 °FFog.12 mph94%30.36 "Hg4 mi
1:50 am54 °FLow clouds.14 mph94%30.33 "HgN/A
12:50 am54 °FFog.16 mph94%30.33 "Hg5 mi
11:50 pm
Tue, Jun 25
54 °FLow clouds.15 mph100%30.33 "HgN/A
10:50 pm54 °FFog.13 mph100%30.30 "Hg3 mi
9:50 pm54 °FFog.13 mph100%30.30 "Hg5 mi
8:50 pm55 °FFog.16 mph94%30.27 "Hg6 mi
7:50 pm55 °FLow clouds.15 mph94%30.27 "HgN/A
6:50 pm55 °FFog.13 mph100%30.24 "Hg4 mi
5:50 pm55 °FLight rain. Low clouds.15 mph100%30.24 "Hg4 mi
4:50 pm57 °FLight rain. Low clouds.15 mph94%30.21 "HgN/A
3:50 pm57 °FLight rain. Low clouds.15 mph94%30.21 "HgN/A
2:50 pm55 °FRain. Low clouds.15 mph100%30.21 "HgN/A
1:50 pm55 °FLow clouds.15 mph100%30.18 "HgN/A
12:50 pm55 °FFog.13 mph100%30.18 "Hg4 mi
11:50 am55 °FLow clouds.13 mph100%30.18 "HgN/A
10:50 am55 °FRain. Low clouds.13 mph100%30.18 "HgN/A
10:20 am55 °FRain. Low clouds.16 mph100%30.15 "HgN/A
9:50 am55 °FRain. Low clouds.15 mph100%30.15 "Hg4 mi
Weather by CustomWeather, © 2019

See weather overview